Flag for Canada Weather past 2 weeks in East Hants, Nova Scotia, Canada

Now
37 °F

Drizzle. Fog.


Feels Like: 28 °F
Forecast: 32 / 38 °F
Wind: 16 mph from Southeast

Location: Halifax International Airport


UV Index: 0 (Low)

Visibility: 3 mi


Pressure: 29.35 "Hg

Humidity: 93%

Dew point: 36 °F

Location of East HantsLocation

Historic Weather in East Hants

°F

East Hants temperature yesterday

Maximum temperature yesterday: 52 °F (at 1:00 PM)
Minimum temperature yesterday: 39 °F (at 11:00 PM)
Average temperature yesterday: 45 °F

Past Weeks' High & Low Weather Summary

 TemperatureHumidityPressure
High64 °F (Apr 14, 4:00 PM)100% (Apr 9, 2:00 AM)30.80 "Hg (Apr 9, 2:00 AM)
Low21 °F (Apr 18, 6:00 AM)23% (Apr 10, 5:00 PM)29.32 "Hg (Apr 9, 4:00 AM)
Average42 °F77%30.06 "Hg
* Reported Apr 9 2:00 AM — Apr 24 2:00 AM, East Hants, Weather by CustomWeather, © 2014

Note: Actual official high and low records may vary slightly from our data, if they occured in-between our weather recording intervals... More about our weather records

Advertising

Historic Weather Conditions — Data for Previous 24 hours

 ConditionsComfort  
Time TempWeatherWind HumidityBarometerVisibility
2:00 AM
Apr 24
37 °FDrizzle. Fog.17 mph100%29.36 "Hg3 mi
1:00 AM37 °FDrizzle. Fog.20 mph100%29.38 "Hg3 mi
12:00 AM39 °FDrizzle. Fog.21 mph100%29.40 "Hg2 mi
11:00 PM
Apr 23
39 °FDrizzle. Fog.18 mph100%29.43 "Hg1 mi
10:00 PM41 °FDrizzle. Fog.15 mph100%29.45 "Hg1 mi
9:00 PM43 °FDrizzle. Fog.14 mph93%29.45 "Hg1 mi
8:00 PM43 °FFog.12 mph100%29.46 "Hg1 mi
7:00 PM46 °FLow clouds.15 mph93%29.46 "Hg15 mi
6:00 PM48 °FFog.16 mph94%29.47 "Hg3 mi
5:46 PM48 °FDrizzle. Fog.9 mph100%29.48 "Hg1 mi
5:00 PM48 °FDrizzle. Fog.8 mph94%29.49 "Hg1 mi
4:00 PM48 °FFog.13 mph94%29.49 "Hg3 mi
3:00 PM48 °FLight rain. Low clouds.13 mph94%29.51 "Hg15 mi
2:00 PM52 °FBroken clouds.14 mph82%29.51 "Hg15 mi
1:00 PM52 °FMostly cloudy.12 mph88%29.53 "Hg15 mi
12:00 PM50 °FLow clouds.7 mph94%29.54 "Hg15 mi
11:50 AM50 °FLow clouds.9 mph88%29.55 "Hg15 mi
11:00 AM46 °FFog.8 mph100%29.55 "Hg1 mi
10:00 AM45 °FFog.9 mph100%29.57 "Hg1 mi
9:48 AM45 °FFog.9 mph100%29.58 "Hg1 mi
9:00 AM45 °FFog.10 mph93%29.59 "Hg1 mi
8:00 AM43 °FFog.12 mph100%29.59 "Hg0 mi
7:50 AM43 °FFog.12 mph100%29.59 "Hg0 mi
7:00 AM43 °FFog.9 mph93%29.59 "Hg1 mi
6:00 AM43 °FFog.9 mph93%29.58 "Hg2 mi
5:00 AM41 °FMostly cloudy.7 mph100%29.59 "Hg10 mi
4:00 AM43 °FPassing clouds.8 mph93%29.61 "Hg12 mi
3:00 AM43 °FPassing clouds.6 mph93%29.62 "Hg15 mi
Weather by CustomWeather, © 2014

See weather overview